Tracking 30995 objects as of 7-Jul-2025
HD Live streaming from Space Station
objects crossing your sky now

NANOSAT 1B

Track NANOSAT 1B now!
10-day predictions
NANOSAT 1B is classified as:


NORAD ID: 35685
Int'l Code: 2009-041E
Perigee: 565.9 km
Apogee: 636.0 km
Inclination: 98.1 °
Period: 96.6 minutes
Semi major axis: 6971 km
RCS: 0.248 m2 (medium)
Launch date: July 29, 2009
Source: Spain (SPN)
Launch site: TYURATAM MISSILE AND SPACE COMPLEX (TTMTR)

Nanosat 1B is a small testbed for the Spanish space agency. The satellite, stretching about 20 inches [50 cm] in diameter, will demonstrate basic space technologies.
Your satellite tracking list
Your tracking list is empty




NASA's NSSDC Master Catalog

Two Line Element Set (TLE):
1 35685U 09041E   25187.29103009  .00001463  00000-0  14959-3 0  9993
2 35685  98.0952 291.1235 0050293 221.3332 138.4075 14.91328571862836
Source of the keplerian elements: AFSPC